Johnstown, PA

6:19 PM EST on January 16, 2017 (GMT -0500)
Johnstown-Cambria County

Weather History for KJST - February, 2012

Change the Weather History Date:

Friday, February 17, 2012

  Actual Average Record
Temperature  
Mean Temperature 34 °F 27 °F  
Max Temperature 39 °F 34 °F 75 °F (1954)
Min Temperature 28 °F 20 °F -6 °F (1958)
Degree Days  
Heating Degree Days 32 38  
Month to date heating degree days 663  
Since 1 July heating degree days 4480  
Cooling Degree Days 0 0  
Month to date cooling degree days 0  
Year to date cooling degree days 0  
Moisture  
Dew Point 28 °F    
Average Humidity 81    
Maximum Humidity 100    
Minimum Humidity 52    
Precipitation  
Precipitation 0.05 in 0.08 in 1.18 in (1980)
Month to date precipitation 1.41  
Year to date precipitation 4.29  
Sea Level Pressure  
Sea Level Pressure 30.04 in    
Wind  
Wind Speed 13 mph (WNW)    
Max Wind Speed 20 mph    
Max Gust Speed 25 mph    
Visibility 7 miles    
Events Rain , Snow    
T = Trace of Precipitation, MM = Missing Value Source: NWS Daily Summary

Daily Weather History Graph

Daily Weather History Graph

Search for Another Location

Airport or City:

Trip Planner

Search our weather history database for the weather conditions in past years. The results will help you decide how hot, cold, wet, or windy it might be!

Date:

Astronomy

Feb. 17, 2012 Rise Set
Actual Time 7:06 AM EST 5:52 PM EST
Civil Twilight 6:38 AM EST 6:20 PM EST
Nautical Twilight 6:07 AM EST 6:52 PM EST
Astronomical Twilight 5:35 AM EST 7:23 PM EST
Moon 3:57 AM EST (2/17) 1:43 PM EST (2/17)
Length of Visible Light 11h 41m
Length of Day
10h 45m
Waning Crescent, 19% of the Moon is Illuminated
Feb 17
Waning Crescent
Feb 21
New
Feb 29
First Quarter
Mar 8
Full
Mar 14
Last Quarter

Hourly Weather History & Observations

Time (EST) Temp. Windchill Dew Point Humidity Pressure Visibility Wind Dir Wind Speed Gust Speed Precip Events Conditions
12:27 AM 39.2 °F 30.8 °F 39.2 °F 100% 29.95 in 2.0 mi WNW 15.0 mph 20.7 mph 0.01 in Rain Light Rain
12:32 AM 39.2 °F 30.5 °F 39.2 °F 100% 29.95 in 3.0 mi WNW 16.1 mph 23.0 mph 0.02 in Rain Light Rain
12:39 AM 39.2 °F 30.5 °F 39.2 °F 100% 29.95 in 4.0 mi WNW 16.1 mph 23.0 mph 0.02 in Rain Light Rain
12:45 AM 39.2 °F 33.6 °F 39.2 °F 100% 29.95 in 1.2 mi NW 8.1 mph 19.6 mph 0.02 in Rain Light Rain
12:54 AM 37.0 °F 27.4 °F 37.0 °F 100% 30.02 in 0.8 mi NW 17.3 mph 24.2 mph 0.02 in Rain Light Rain
12:58 AM 37.4 °F 27.2 °F 37.4 °F 100% 29.97 in 2.5 mi NW 19.6 mph 25.3 mph 0.00 in Rain Light Rain
1:05 AM 35.6 °F 25.2 °F 35.6 °F 100% 29.97 in 3.0 mi NW 18.4 mph - 0.01 in Rain Light Rain
1:22 AM 35.6 °F 25.9 °F 35.6 °F 100% 29.98 in 2.0 mi NW 16.1 mph - 0.01 in Snow Light Snow
1:54 AM 33.1 °F 23.9 °F 33.1 °F 100% 30.05 in 2.5 mi WNW 12.7 mph - 0.03 in Snow Light Snow
2:11 AM 33.8 °F 23.5 °F 33.8 °F 100% 29.99 in 4.0 mi West 16.1 mph 24.2 mph 0.00 in   Overcast
2:25 AM 33.8 °F 23.5 °F 32.0 °F 93% 29.99 in 7.0 mi WNW 16.1 mph 23.0 mph 0.00 in   Overcast
2:54 AM 33.1 °F 24.4 °F 32.0 °F 96% 30.04 in 5.0 mi West 11.5 mph - 0.00 in Snow Light Snow
3:31 AM 33.8 °F 25.8 °F 30.2 °F 87% 29.98 in 9.0 mi West 10.4 mph 21.9 mph 0.00 in   Overcast
3:54 AM 33.1 °F 24.4 °F 30.9 °F 92% 30.04 in 8.0 mi West 11.5 mph 17.3 mph 0.00 in   Overcast
4:22 AM 33.8 °F 26.4 °F 30.2 °F 87% 30.00 in 9.0 mi West 9.2 mph - N/A   Overcast
4:36 AM 33.8 °F 26.4 °F 30.2 °F 87% 30.00 in 9.0 mi West 9.2 mph - N/A   Overcast
4:54 AM 33.1 °F 24.4 °F 28.9 °F 85% 30.06 in 9.0 mi West 11.5 mph 24.2 mph N/A   Overcast
5:33 AM 32.0 °F 24.2 °F 28.4 °F 87% 30.01 in 8.0 mi West 9.2 mph - N/A   Overcast
5:54 AM 32.0 °F 23.0 °F 28.0 °F 85% 30.06 in 9.0 mi West 11.5 mph - N/A   Overcast
6:36 AM 32.0 °F 24.8 °F 28.4 °F 87% 30.02 in 8.0 mi West 8.1 mph - N/A   Overcast
6:54 AM 30.9 °F 24.3 °F 28.9 °F 92% 30.09 in 7.0 mi NW 6.9 mph - N/A   Overcast
7:54 AM 30.0 °F 25.2 °F 27.0 °F 88% 30.11 in 6.0 mi NW 4.6 mph - N/A   Overcast
8:39 AM 30.2 °F 23.4 °F 26.6 °F 86% 30.06 in 7.0 mi WNW 6.9 mph - N/A   Overcast
8:54 AM 30.9 °F 21.7 °F 27.0 °F 85% 30.11 in 7.0 mi WNW 11.5 mph - N/A   Mostly Cloudy
9:08 AM 32.0 °F 24.2 °F 26.6 °F 80% 30.05 in 8.0 mi WNW 9.2 mph - N/A   Scattered Clouds
9:54 AM 33.1 °F 24.9 °F 26.1 °F 75% 30.10 in 10.0 mi West 10.4 mph - N/A   Clear
10:54 AM 35.1 °F 27.9 °F 25.0 °F 67% 30.10 in 10.0 mi West 9.2 mph - N/A   Partly Cloudy
11:54 AM 36.0 °F 27.1 °F 21.9 °F 57% 30.09 in 10.0 mi West 13.8 mph 20.7 mph N/A   Mostly Cloudy
12:54 PM 36.0 °F 28.0 °F 21.9 °F 57% 30.07 in 10.0 mi West 11.5 mph 24.2 mph N/A   Mostly Cloudy
1:54 PM 37.9 °F 28.2 °F 24.1 °F 57% 30.05 in 10.0 mi WNW 18.4 mph 21.9 mph N/A   Partly Cloudy
2:54 PM 37.0 °F 28.1 °F 21.0 °F 52% 30.06 in 10.0 mi West 15.0 mph 25.3 mph N/A   Clear
3:54 PM 37.0 °F 28.9 °F 21.9 °F 54% 30.07 in 10.0 mi West 12.7 mph 20.7 mph N/A   Mostly Cloudy
4:54 PM 37.0 °F 28.1 °F 23.0 °F 57% 30.06 in 10.0 mi West 15.0 mph 23.0 mph N/A   Mostly Cloudy
5:54 PM 36.0 °F 29.0 °F 21.9 °F 57% 30.08 in 10.0 mi West 9.2 mph 18.4 mph N/A   Scattered Clouds
6:54 PM 35.1 °F 28.6 °F 23.0 °F 61% 30.10 in 10.0 mi West 8.1 mph - N/A   Mostly Cloudy
7:54 PM 33.1 °F 28.7 °F 21.9 °F 64% 30.11 in 10.0 mi West 4.6 mph - N/A   Partly Cloudy
8:54 PM 30.9 °F 25.2 °F 21.0 °F 67% 30.11 in 10.0 mi NW 5.8 mph - N/A   Clear
9:54 PM 30.0 °F 20.5 °F 21.0 °F 69% 30.10 in 10.0 mi NW 11.5 mph - N/A   Clear
10:54 PM 28.9 °F - 21.0 °F 72% 30.10 in 10.0 mi Calm Calm - N/A   Clear
11:54 PM 28.0 °F - 19.9 °F 72% 30.09 in 10.0 mi Calm Calm - N/A   Clear